TimePST,TemperatureF,Dew PointF,Humidity,Sea Level PressureIn,VisibilityMPH,Wind Direction,Wind SpeedMPH,Gust SpeedMPH,PrecipitationIn,Events,Conditions,WindDirDegrees,DateUTC
12:53 AM,19.9,18.0,92,30.26,0.5,South,8.1,-,N/A,,Overcast,180,2013-01-12 08:53:00
1:05 AM,19.4,17.6,93,30.17,1.0,South,8.1,-,N/A,,Overcast,190,2013-01-12 09:05:00
1:31 AM,19.4,17.6,93,30.17,6.0,South,6.9,-,N/A,,Overcast,180,2013-01-12 09:31:00
1:53 AM,21.0,18.0,88,30.26,7.0,South,5.8,-,N/A,,Overcast,180,2013-01-12 09:53:00
2:53 AM,21.0,19.0,92,30.25,7.0,SSW,11.5,-,N/A,,Overcast,200,2013-01-12 10:53:00
3:53 AM,21.0,18.0,88,30.25,7.0,SSW,9.2,-,0.00,,Overcast,210,2013-01-12 11:53:00
4:53 AM,19.9,18.0,92,30.26,7.0,SW,8.1,-,N/A,,Overcast,220,2013-01-12 12:53:00
5:53 AM,19.9,18.0,92,30.28,7.0,SW,5.8,-,N/A,,Overcast,220,2013-01-12 13:53:00
6:53 AM,19.9,18.0,92,30.29,5.0,WSW,5.8,-,N/A,,Overcast,250,2013-01-12 14:53:00
7:16 AM,19.4,17.6,93,30.18,1.0,West,4.6,-,0.00,,Overcast,270,2013-01-12 15:16:00
7:53 AM,19.4,18.0,94,30.25,1.0,WSW,5.8,-,0.00,,Overcast,250,2013-01-12 15:53:00
8:45 AM,19.4,17.6,93,30.19,1.0,West,4.6,-,N/A,,Overcast,270,2013-01-12 16:45:00
8:53 AM,19.9,19.0,96,30.31,1.0,WNW,4.6,-,N/A,,Overcast,290,2013-01-12 16:53:00
9:53 AM,21.0,19.0,92,30.32,2.0,WNW,3.5,-,0.00,,Overcast,290,2013-01-12 17:53:00
10:06 AM,21.2,17.6,86,30.21,3.0,NNW,6.9,-,N/A,,Overcast,340,2013-01-12 18:06:00
10:53 AM,19.0,17.1,92,30.32,8.0,NNW,4.6,-,N/A,,Overcast,340,2013-01-12 18:53:00
11:53 AM,19.0,16.0,88,30.32,8.0,North,5.8,-,N/A,,Overcast,10,2013-01-12 19:53:00
12:23 PM,19.4,15.8,86,30.20,1.5,North,4.6,-,0.00,Snow,Light Snow,10,2013-01-12 20:23:00
12:31 PM,19.4,15.8,86,30.21,5.0,North,5.8,-,0.00,Snow,Light Snow,10,2013-01-12 20:31:00
12:53 PM,18.0,15.1,88,30.32,9.0,North,3.5,-,0.00,,Overcast,360,2013-01-12 20:53:00
1:53 PM,19.0,14.0,81,30.32,10.0,North,5.8,-,N/A,,Overcast,360,2013-01-12 21:53:00
2:53 PM,18.0,14.0,84,30.33,10.0,ENE,3.5,-,N/A,,Mostly Cloudy,60,2013-01-12 22:53:00
3:24 PM,17.6,12.2,79,30.22,10.0,Calm,Calm,-,N/A,,Overcast,0,2013-01-12 23:24:00
3:53 PM,18.0,14.0,84,30.33,10.0,Calm,Calm,-,N/A,,Overcast,0,2013-01-12 23:53:00
4:53 PM,14.0,10.9,88,30.36,10.0,West,3.5,-,N/A,,Mostly Cloudy,270,2013-01-13 00:53:00
5:53 PM,12.0,9.0,88,30.37,9.0,Calm,Calm,-,N/A,,Mostly Cloudy,0,2013-01-13 01:53:00
6:41 PM,8.6,5.0,85,30.25,10.0,SW,3.5,-,N/A,,Mostly Cloudy,220,2013-01-13 02:41:00
6:53 PM,10.9,8.1,88,30.37,10.0,South,3.5,-,N/A,,Mostly Cloudy,180,2013-01-13 02:53:00
7:53 PM,5.0,1.9,87,30.33,10.0,SW,5.8,-,N/A,,Mostly Cloudy,230,2013-01-13 03:53:00
8:53 PM,7.0,3.0,84,30.37,10.0,WSW,4.6,-,N/A,,Mostly Cloudy,250,2013-01-13 04:53:00
9:35 PM,10.4,5.0,79,30.24,10.0,SW,3.5,-,N/A,,Overcast,220,2013-01-13 05:35:00
9:53 PM,9.0,6.1,88,30.37,10.0,WSW,3.5,-,N/A,,Overcast,250,2013-01-13 05:53:00
10:53 PM,15.1,12.0,88,30.36,10.0,SE,3.5,-,N/A,,Overcast,140,2013-01-13 06:53:00
11:53 PM,16.0,12.0,84,30.35,7.0,Calm,Calm,-,N/A,,Overcast,0,2013-01-13 07:53:00